Flag for Chile Weather past 2 weeks in Puerto Williams, Chile

Now
36 °F

Passing clouds.


Feels Like: 33 °F
Forecast: 29 / 41 °F
Wind: 3 mph from Northeast

Location: Ushuaia Aerodrome

Current Time: Jul 30, 2014 at 12:01:20 AM

Latest Report: Jul 29, 2014 at 11:00 PM


Visibility: N/A

Pressure: 29.56 "Hg

Humidity: 93%

Dew point: 34 °F

Location of Puerto WilliamsLocation

Historic Weather in Puerto Williams — Graph

°F

Puerto Williams temperature yesterday

Maximum temperature yesterday: 43 °F (at 2:00 PM)
Minimum temperature yesterday: 32 °F (at 5:00 AM)
Average temperature yesterday: 37 °F

Past Weeks' High & Low Weather Summary

 TemperatureHumidityPressure
High50 °F (Jul 19, 11:00 AM)100% (Jul 20, 9:00 PM)30.15 "Hg (Jul 20, 9:00 PM)
Low27 °F (Jul 23, 9:00 AM)35% (Jul 19, 11:00 AM)29.21 "Hg (Jul 22, 8:00 PM)
Average34 °F79%29.73 "Hg
* Reported Midnight between Jul 14 and Jul 15 — Jul 29 11:00 PM, Puerto Williams, Weather by CustomWeather, © 2014

Note: Actual official high and low records may vary slightly from our data, if they occured in-between our weather recording intervals... More about our weather records

Advertising

Puerto Williams weather history for previous 24 hours

 ConditionsComfort  
Time TempWeatherWind HumidityBarometerVisibility
11:00 PM
Jul 29
36 °FPassing clouds.3 mph93%29.56 "HgN/A
9:00 PM36 °FPassing clouds.5 mph87%29.56 "HgN/A
8:00 PM37 °FPassing clouds.3 mph87%29.56 "HgN/A
7:00 PM37 °FPassing clouds.3 mph93%29.56 "HgN/A
6:00 PM37 °FClear.9 mph93%29.53 "Hg10 mi
5:00 PM37 °FPassing clouds.6 mph93%29.53 "HgN/A
4:00 PM39 °FPassing clouds.5 mph87%29.53 "HgN/A
3:00 PM41 °FScattered clouds.9 mph81%29.53 "HgN/A
2:00 PM43 °FScattered clouds.9 mph81%29.53 "HgN/A
1:00 PM39 °FScattered clouds.9 mph81%29.53 "HgN/A
12:00 PM41 °FScattered clouds.7 mph70%29.50 "HgN/A
11:00 AM39 °FPartly sunny.9 mph75%29.50 "HgN/A
10:00 AM39 °FBroken clouds.7 mph81%29.50 "HgN/A
9:00 AM37 °FBroken clouds.8 mph87%29.47 "HgN/A
8:00 AM37 °FBroken clouds.2 mph81%29.47 "HgN/A
7:00 AM36 °FPassing clouds.9 mph93%29.47 "HgN/A
6:00 AM36 °FPassing clouds.8 mph93%29.47 "HgN/A
5:00 AM32 °FDrizzle. Overcast.3 mph100%29.45 "HgN/A
4:00 AM34 °FDrizzle. Overcast.5 mph93%29.45 "Hg5 mi
3:00 AM34 °FDrizzle. Overcast.2 mph93%29.45 "Hg5 mi
2:00 AM34 °FDrizzle. Overcast.2 mph100%29.42 "Hg2 mi
1:00 AM34 °FRain. Overcast.2 mph100%29.42 "Hg2 mi
12:00 AM34 °FRain. Overcast.6 mph100%29.42 "Hg2 mi
Weather by CustomWeather, © 2014

See weather overviewHow to use our weather pages